LAOSAT 1

Last updated on Sun Aug 31 2025 00:02:48 GMT+0000 (Coordinated Universal Time)

1 41034U 15067A 25241.90939227 -.00000339 00000+0 00000+0 0 9990 2 41034 0.0014 87.0386 0002923 9.6804 337.5338 1.00272118 35938
UTC large
Height (km)
Speed (km/s)
/
Latitude / Longitude
Inclination (degrees)
Orbital Period (minutes)
Azimuth
Elevation
Range (km)
Doppler Factor

Next 0 passes for location: London (51.5072 / 0.1276)

Sorry there are no passes over London.